Time,TemperatureF,DewpointF,PressureIn,WindDirection,WindDirectionDegrees,WindSpeedMPH,WindSpeedGustMPH,Humidity,HourlyPrecipIn,Conditions,Clouds,dailyrainin,SoftwareType,DateUTC
2013-12-15 00:01:00,42.4,41.0,29.13,West,270,0.0,2.0,96,0.00,,,0.00,Rainwise IP-100,2013-12-15 05:01:00,
2013-12-15 00:06:00,42.4,41.0,29.12,NW,315,2.0,2.0,96,0.00,,,0.00,Rainwise IP-100,2013-12-15 05:06:00,
2013-12-15 00:11:00,42.6,42.0,29.13,NW,315,2.0,5.0,96,0.00,,,0.00,Rainwise IP-100,2013-12-15 05:11:00,
2013-12-15 00:16:00,42.6,42.0,29.13,NNW,337,4.0,7.0,96,0.06,,,0.01,Rainwise IP-100,2013-12-15 05:16:00,
2013-12-15 00:21:00,42.5,42.0,29.12,North,360,5.0,8.0,96,0.06,,,0.01,Rainwise IP-100,2013-12-15 05:21:00,
2013-12-15 00:26:00,42.4,41.0,29.13,NNW,337,3.0,8.0,96,0.00,,,0.01,Rainwise IP-100,2013-12-15 05:26:00,
2013-12-15 00:31:00,42.4,41.0,29.13,North,360,4.0,6.0,96,0.00,,,0.01,Rainwise IP-100,2013-12-15 05:31:00,
2013-12-15 00:36:00,42.3,41.0,29.13,NW,315,2.0,5.0,96,0.00,,,0.01,Rainwise IP-100,2013-12-15 05:36:00,
2013-12-15 00:41:00,42.3,41.0,29.12,North,360,2.0,2.0,96,0.00,,,0.01,Rainwise IP-100,2013-12-15 05:41:00,
2013-12-15 00:46:00,42.3,41.0,29.11,North,360,0.0,2.0,96,0.00,,,0.01,Rainwise IP-100,2013-12-15 05:46:00,
2013-12-15 00:51:00,42.3,41.0,29.11,NW,315,2.0,3.0,96,0.00,,,0.01,Rainwise IP-100,2013-12-15 05:51:00,
2013-12-15 00:56:00,42.4,41.0,29.12,WSW,247,2.0,3.0,96,0.00,,,0.01,Rainwise IP-100,2013-12-15 05:56:00,
2013-12-15 01:01:00,42.5,42.0,29.14,WSW,247,2.0,4.0,96,0.00,,,0.01,Rainwise IP-100,2013-12-15 06:01:00,
2013-12-15 01:06:00,42.5,42.0,29.15,West,270,1.0,4.0,96,0.00,,,0.01,Rainwise IP-100,2013-12-15 06:06:00,
2013-12-15 01:11:00,42.4,41.0,29.13,WSW,247,2.0,2.0,96,0.00,,,0.01,Rainwise IP-100,2013-12-15 06:11:00,
2013-12-15 01:16:00,42.4,41.0,29.14,West,270,2.0,3.0,96,0.00,,,0.01,Rainwise IP-100,2013-12-15 06:16:00,
2013-12-15 01:21:00,42.5,42.0,29.14,SW,225,4.0,4.0,96,0.00,,,0.01,Rainwise IP-100,2013-12-15 06:21:00,
2013-12-15 01:26:00,42.6,42.0,29.14,WSW,247,3.0,5.0,96,0.00,,,0.01,Rainwise IP-100,2013-12-15 06:26:00,
2013-12-15 01:31:00,42.7,42.0,29.13,West,270,3.0,6.0,96,0.00,,,0.01,Rainwise IP-100,2013-12-15 06:31:00,
2013-12-15 01:36:00,42.7,42.0,29.14,WSW,247,3.0,11.0,96,0.00,,,0.01,Rainwise IP-100,2013-12-15 06:36:00,
2013-12-15 01:41:00,42.7,42.0,29.15,WSW,247,5.0,9.0,96,0.00,,,0.01,Rainwise IP-100,2013-12-15 06:41:00,
2013-12-15 01:46:00,42.6,42.0,29.15,SW,225,2.0,11.0,96,0.00,,,0.01,Rainwise IP-100,2013-12-15 06:46:00,
2013-12-15 01:51:00,42.5,42.0,29.15,SW,225,7.0,8.0,96,0.06,,,0.02,Rainwise IP-100,2013-12-15 06:51:00,
2013-12-15 01:56:00,42.4,41.0,29.13,SW,225,3.0,8.0,96,0.06,,,0.02,Rainwise IP-100,2013-12-15 06:56:00,
2013-12-15 02:01:00,42.4,41.0,29.13,SSW,202,5.0,7.0,96,0.00,,,0.02,Rainwise IP-100,2013-12-15 07:01:00,
2013-12-15 02:06:00,42.3,41.0,29.13,SSW,202,2.0,6.0,96,0.00,,,0.02,Rainwise IP-100,2013-12-15 07:06:00,
2013-12-15 02:11:00,42.3,41.0,29.11,South,180,3.0,4.0,96,0.06,,,0.03,Rainwise IP-100,2013-12-15 07:11:00,
2013-12-15 02:16:00,42.3,41.0,29.10,SW,225,2.0,6.0,96,0.06,,,0.03,Rainwise IP-100,2013-12-15 07:16:00,
2013-12-15 02:21:00,42.4,41.0,29.10,SW,225,6.0,6.0,96,0.00,,,0.03,Rainwise IP-100,2013-12-15 07:21:00,
2013-12-15 02:26:00,42.4,41.0,29.10,SW,225,2.0,6.0,96,0.00,,,0.03,Rainwise IP-100,2013-12-15 07:26:00,
2013-12-15 02:31:00,42.5,42.0,29.11,SW,225,3.0,7.0,96,0.00,,,0.03,Rainwise IP-100,2013-12-15 07:31:00,
2013-12-15 02:36:00,42.6,42.0,29.10,SSW,202,4.0,4.0,96,0.00,,,0.03,Rainwise IP-100,2013-12-15 07:36:00,
2013-12-15 02:41:00,42.6,42.0,29.10,SW,225,2.0,4.0,96,0.00,,,0.03,Rainwise IP-100,2013-12-15 07:41:00,
2013-12-15 02:46:00,42.7,42.0,29.10,SW,225,0.0,4.0,96,0.00,,,0.03,Rainwise IP-100,2013-12-15 07:46:00,
2013-12-15 02:51:00,42.8,42.0,29.09,WSW,247,2.0,2.0,96,0.00,,,0.03,Rainwise IP-100,2013-12-15 07:51:00,
2013-12-15 02:56:00,42.9,42.0,29.11,WSW,247,1.0,4.0,96,0.00,,,0.03,Rainwise IP-100,2013-12-15 07:56:00,
2013-12-15 03:01:00,42.9,42.0,29.11,West,270,1.0,3.0,96,0.06,,,0.04,Rainwise IP-100,2013-12-15 08:01:00,
2013-12-15 03:06:00,42.9,42.0,29.11,West,270,0.0,2.0,96,0.06,,,0.04,Rainwise IP-100,2013-12-15 08:06:00,
2013-12-15 03:11:00,42.9,42.0,29.10,West,270,0.0,2.0,96,0.00,,,0.04,Rainwise IP-100,2013-12-15 08:11:00,
2013-12-15 03:16:00,42.9,42.0,29.09,West,270,1.0,2.0,96,0.00,,,0.04,Rainwise IP-100,2013-12-15 08:16:00,
2013-12-15 03:21:00,43.0,42.0,29.09,WNW,292,1.0,3.0,96,0.00,,,0.04,Rainwise IP-100,2013-12-15 08:21:00,
2013-12-15 03:26:00,42.9,42.0,29.09,WNW,292,4.0,5.0,96,0.06,,,0.05,Rainwise IP-100,2013-12-15 08:26:00,
2013-12-15 03:31:00,43.1,42.0,29.12,NW,315,3.0,9.0,96,0.06,,,0.05,Rainwise IP-100,2013-12-15 08:31:00,
2013-12-15 03:36:00,43.1,42.0,29.11,West,270,0.0,7.0,96,0.00,,,0.05,Rainwise IP-100,2013-12-15 08:36:00,
2013-12-15 03:41:00,43.1,42.0,29.09,West,270,2.0,6.0,96,0.00,,,0.05,Rainwise IP-100,2013-12-15 08:41:00,
2013-12-15 03:46:00,43.2,42.0,29.11,West,270,4.0,5.0,96,0.00,,,0.05,Rainwise IP-100,2013-12-15 08:46:00,
2013-12-15 03:51:00,43.2,42.0,29.11,WSW,247,4.0,6.0,96,0.00,,,0.05,Rainwise IP-100,2013-12-15 08:51:00,
2013-12-15 03:56:00,43.2,42.0,29.12,SW,225,2.0,6.0,96,0.00,,,0.05,Rainwise IP-100,2013-12-15 08:56:00,
2013-12-15 04:01:00,43.2,42.0,29.10,SW,225,2.0,6.0,96,0.00,,,0.05,Rainwise IP-100,2013-12-15 09:01:00,
2013-12-15 04:06:00,43.2,42.0,29.09,SE,135,2.0,5.0,96,0.00,,,0.05,Rainwise IP-100,2013-12-15 09:06:00,
2013-12-15 04:11:00,43.2,42.0,29.05,WSW,247,2.0,4.0,96,0.00,,,0.05,Rainwise IP-100,2013-12-15 09:11:00,
2013-12-15 04:16:00,43.3,42.0,29.09,WSW,247,2.0,5.0,96,0.00,,,0.05,Rainwise IP-100,2013-12-15 09:16:00,
2013-12-15 04:21:00,43.3,42.0,29.09,SW,225,2.0,4.0,96,0.00,,,0.05,Rainwise IP-100,2013-12-15 09:21:00,
2013-12-15 04:26:00,43.4,42.0,29.09,SSW,202,2.0,3.0,96,0.00,,,0.05,Rainwise IP-100,2013-12-15 09:26:00,
2013-12-15 04:31:00,43.4,42.0,29.08,SW,225,1.0,5.0,96,0.00,,,0.05,Rainwise IP-100,2013-12-15 09:31:00,
2013-12-15 04:36:00,43.4,42.0,29.08,WSW,247,2.0,4.0,96,0.00,,,0.05,Rainwise IP-100,2013-12-15 09:36:00,
2013-12-15 04:41:00,43.5,43.0,29.08,SW,225,1.0,5.0,96,0.00,,,0.05,Rainwise IP-100,2013-12-15 09:41:00,
2013-12-15 04:46:00,43.6,43.0,29.08,SSW,202,0.0,3.0,96,0.00,,,0.05,Rainwise IP-100,2013-12-15 09:46:00,
2013-12-15 04:51:00,43.7,43.0,29.07,WSW,247,2.0,4.0,96,0.00,,,0.05,Rainwise IP-100,2013-12-15 09:51:00,
2013-12-15 04:56:00,43.7,43.0,29.07,SW,225,2.0,5.0,96,0.00,,,0.05,Rainwise IP-100,2013-12-15 09:56:00,
2013-12-15 05:01:00,43.8,43.0,29.07,WSW,247,2.0,6.0,96,0.00,,,0.05,Rainwise IP-100,2013-12-15 10:01:00,
2013-12-15 05:06:00,44.0,43.0,29.07,SW,225,4.0,6.0,96,0.00,,,0.05,Rainwise IP-100,2013-12-15 10:06:00,
2013-12-15 05:11:00,44.2,43.0,29.08,West,270,2.0,6.0,96,0.00,,,0.05,Rainwise IP-100,2013-12-15 10:11:00,
2013-12-15 05:16:00,44.4,43.0,29.10,SW,225,2.0,6.0,96,0.00,,,0.05,Rainwise IP-100,2013-12-15 10:16:00,
2013-12-15 05:21:00,44.7,44.0,29.10,WSW,247,2.0,9.0,96,0.00,,,0.05,Rainwise IP-100,2013-12-15 10:21:00,
2013-12-15 05:26:00,44.9,44.0,29.10,West,270,2.0,7.0,96,0.00,,,0.05,Rainwise IP-100,2013-12-15 10:26:00,
2013-12-15 05:31:00,44.9,44.0,29.10,WNW,292,3.0,9.0,96,0.00,,,0.05,Rainwise IP-100,2013-12-15 10:31:00,
2013-12-15 05:36:00,45.0,44.0,29.09,WSW,247,2.0,6.0,97,0.00,,,0.05,Rainwise IP-100,2013-12-15 10:36:00,
2013-12-15 05:41:00,45.2,44.0,29.09,West,270,6.0,7.0,97,0.00,,,0.05,Rainwise IP-100,2013-12-15 10:41:00,
2013-12-15 05:46:00,45.3,44.0,29.10,WSW,247,4.0,10.0,97,0.00,,,0.05,Rainwise IP-100,2013-12-15 10:46:00,
2013-12-15 05:51:00,45.4,44.0,29.10,WSW,247,6.0,9.0,97,0.00,,,0.05,Rainwise IP-100,2013-12-15 10:51:00,
2013-12-15 05:56:00,45.5,45.0,29.11,WNW,292,4.0,7.0,97,0.00,,,0.05,Rainwise IP-100,2013-12-15 10:56:00,
2013-12-15 06:01:00,45.5,45.0,29.11,WNW,292,4.0,6.0,97,0.00,,,0.05,Rainwise IP-100,2013-12-15 11:01:00,
2013-12-15 06:06:00,45.6,45.0,29.11,WSW,247,2.0,7.0,97,0.00,,,0.05,Rainwise IP-100,2013-12-15 11:06:00,
2013-12-15 06:11:00,45.6,45.0,29.11,West,270,2.0,6.0,97,0.00,,,0.05,Rainwise IP-100,2013-12-15 11:11:00,
2013-12-15 06:16:00,45.6,45.0,29.12,WNW,292,3.0,6.0,97,0.00,,,0.05,Rainwise IP-100,2013-12-15 11:16:00,
2013-12-15 06:21:00,45.7,45.0,29.12,West,270,3.0,10.0,97,0.00,,,0.05,Rainwise IP-100,2013-12-15 11:21:00,
2013-12-15 06:26:00,45.9,45.0,29.11,WSW,247,3.0,14.0,97,0.00,,,0.05,Rainwise IP-100,2013-12-15 11:26:00,
2013-12-15 06:31:00,46.2,45.0,29.11,WNW,292,7.0,16.0,97,0.00,,,0.05,Rainwise IP-100,2013-12-15 11:31:00,
2013-12-15 06:36:00,46.4,45.0,29.12,West,270,12.0,14.0,97,0.00,,,0.05,Rainwise IP-100,2013-12-15 11:36:00,
2013-12-15 06:41:00,46.5,46.0,29.13,WNW,292,7.0,14.0,97,0.00,,,0.05,Rainwise IP-100,2013-12-15 11:41:00,
2013-12-15 06:46:00,46.6,46.0,29.13,NW,315,8.0,12.0,97,0.00,,,0.05,Rainwise IP-100,2013-12-15 11:46:00,
2013-12-15 06:51:00,46.7,46.0,29.13,WNW,292,3.0,12.0,97,0.00,,,0.05,Rainwise IP-100,2013-12-15 11:51:00,
2013-12-15 06:56:00,46.8,46.0,29.13,WNW,292,8.0,11.0,97,0.00,,,0.05,Rainwise IP-100,2013-12-15 11:56:00,
2013-12-15 07:01:00,46.8,46.0,29.13,West,270,8.0,11.0,97,0.00,,,0.05,Rainwise IP-100,2013-12-15 12:01:00,
2013-12-15 07:06:00,46.9,46.0,29.14,WNW,292,5.0,12.0,97,0.00,,,0.05,Rainwise IP-100,2013-12-15 12:06:00,
2013-12-15 07:11:00,46.9,46.0,29.14,West,270,6.0,11.0,97,0.00,,,0.05,Rainwise IP-100,2013-12-15 12:11:00,
2013-12-15 07:16:00,47.1,46.0,29.14,West,270,4.0,12.0,97,0.00,,,0.05,Rainwise IP-100,2013-12-15 12:16:00,
2013-12-15 07:21:00,47.1,46.0,29.15,WNW,292,9.0,12.0,97,0.00,,,0.05,Rainwise IP-100,2013-12-15 12:21:00,
2013-12-15 07:26:00,47.2,46.0,29.15,West,270,2.0,12.0,97,0.00,,,0.05,Rainwise IP-100,2013-12-15 12:26:00,
2013-12-15 07:31:00,47.3,46.0,29.15,SW,225,1.0,12.0,97,0.00,,,0.05,Rainwise IP-100,2013-12-15 12:31:00,
2013-12-15 07:36:00,47.4,47.0,29.16,WSW,247,2.0,9.0,97,0.00,,,0.05,Rainwise IP-100,2013-12-15 12:36:00,
2013-12-15 07:41:00,47.5,47.0,29.16,WNW,292,4.0,7.0,97,0.00,,,0.05,Rainwise IP-100,2013-12-15 12:41:00,
2013-12-15 07:46:00,47.6,47.0,29.16,West,270,3.0,9.0,97,0.00,,,0.05,Rainwise IP-100,2013-12-15 12:46:00,
2013-12-15 07:51:00,47.7,47.0,29.17,West,270,6.0,8.0,97,0.00,,,0.05,Rainwise IP-100,2013-12-15 12:51:00,
2013-12-15 07:56:00,47.8,47.0,29.17,NW,315,12.0,14.0,97,0.00,,,0.05,Rainwise IP-100,2013-12-15 12:56:00,
2013-12-15 08:01:00,47.9,47.0,29.17,West,270,6.0,14.0,97,0.00,,,0.05,Rainwise IP-100,2013-12-15 13:01:00,
2013-12-15 08:06:00,47.9,47.0,29.17,WNW,292,5.0,11.0,97,0.00,,,0.05,Rainwise IP-100,2013-12-15 13:06:00,
2013-12-15 08:11:00,47.9,47.0,29.18,WNW,292,2.0,8.0,97,0.00,,,0.05,Rainwise IP-100,2013-12-15 13:11:00,
2013-12-15 08:16:00,47.9,47.0,29.18,West,270,4.0,9.0,97,0.00,,,0.05,Rainwise IP-100,2013-12-15 13:16:00,
2013-12-15 08:21:00,47.9,47.0,29.19,WNW,292,7.0,12.0,97,0.00,,,0.05,Rainwise IP-100,2013-12-15 13:21:00,
2013-12-15 08:26:00,47.9,47.0,29.19,West,270,3.0,11.0,97,0.00,,,0.05,Rainwise IP-100,2013-12-15 13:26:00,
2013-12-15 08:31:00,47.9,47.0,29.19,West,270,3.0,7.0,97,0.00,,,0.05,Rainwise IP-100,2013-12-15 13:31:00,
2013-12-15 08:36:00,47.9,47.0,29.19,West,270,3.0,6.0,97,0.00,,,0.05,Rainwise IP-100,2013-12-15 13:36:00,
2013-12-15 08:41:00,47.9,47.0,29.19,West,270,2.0,4.0,97,0.00,,,0.05,Rainwise IP-100,2013-12-15 13:41:00,
2013-12-15 08:46:00,47.9,47.0,29.20,West,270,4.0,6.0,97,0.00,,,0.05,Rainwise IP-100,2013-12-15 13:46:00,
2013-12-15 08:51:00,48.1,47.0,29.20,West,270,2.0,7.0,97,0.00,,,0.05,Rainwise IP-100,2013-12-15 13:51:00,
2013-12-15 08:56:00,48.2,47.0,29.21,WNW,292,2.0,5.0,97,0.00,,,0.05,Rainwise IP-100,2013-12-15 13:56:00,
2013-12-15 09:01:00,48.1,47.0,29.21,NW,315,2.0,4.0,97,0.00,,,0.05,Rainwise IP-100,2013-12-15 14:01:00,
2013-12-15 09:06:00,48.0,47.0,29.21,WNW,292,1.0,3.0,97,0.00,,,0.05,Rainwise IP-100,2013-12-15 14:06:00,
2013-12-15 09:11:00,48.1,47.0,29.22,WNW,292,2.0,4.0,97,0.00,,,0.05,Rainwise IP-100,2013-12-15 14:11:00,
2013-12-15 09:16:00,48.2,47.0,29.22,WNW,292,2.0,6.0,97,0.00,,,0.05,Rainwise IP-100,2013-12-15 14:16:00,
2013-12-15 09:21:00,48.3,47.0,29.22,WNW,292,2.0,8.0,97,0.00,,,0.05,Rainwise IP-100,2013-12-15 14:21:00,
2013-12-15 09:26:00,48.3,47.0,29.23,WNW,292,2.0,6.0,97,0.00,,,0.05,Rainwise IP-100,2013-12-15 14:26:00,
2013-12-15 09:31:00,48.5,48.0,29.23,NW,315,2.0,6.0,97,0.00,,,0.05,Rainwise IP-100,2013-12-15 14:31:00,
2013-12-15 09:36:00,48.6,48.0,29.23,NW,315,1.0,4.0,97,0.00,,,0.05,Rainwise IP-100,2013-12-15 14:36:00,
2013-12-15 09:41:00,48.5,48.0,29.23,NW,315,4.0,7.0,97,0.00,,,0.05,Rainwise IP-100,2013-12-15 14:41:00,
2013-12-15 09:46:00,48.7,48.0,29.24,North,360,4.0,6.0,97,0.00,,,0.05,Rainwise IP-100,2013-12-15 14:46:00,
2013-12-15 09:51:00,48.7,48.0,29.24,NW,315,4.0,8.0,97,0.00,,,0.05,Rainwise IP-100,2013-12-15 14:51:00,
2013-12-15 09:56:00,48.7,48.0,29.25,West,270,1.0,7.0,97,0.00,,,0.05,Rainwise IP-100,2013-12-15 14:56:00,
2013-12-15 10:01:00,48.7,48.0,29.25,WNW,292,5.0,9.0,97,0.00,,,0.05,Rainwise IP-100,2013-12-15 15:01:00,
2013-12-15 10:06:00,48.8,48.0,29.25,WNW,292,4.0,8.0,97,0.00,,,0.05,Rainwise IP-100,2013-12-15 15:06:00,
2013-12-15 10:11:00,48.7,48.0,29.25,WNW,292,6.0,11.0,97,0.00,,,0.05,Rainwise IP-100,2013-12-15 15:11:00,
2013-12-15 10:16:00,48.6,48.0,29.25,NW,315,9.0,12.0,97,0.00,,,0.05,Rainwise IP-100,2013-12-15 15:16:00,
2013-12-15 10:21:00,48.7,48.0,29.26,WNW,292,3.0,9.0,97,0.00,,,0.05,Rainwise IP-100,2013-12-15 15:21:00,
2013-12-15 10:26:00,48.7,47.0,29.26,NW,315,6.0,9.0,95,0.00,,,0.05,Rainwise IP-100,2013-12-15 15:26:00,
2013-12-15 10:31:00,48.9,48.0,29.26,NW,315,6.0,11.0,96,0.00,,,0.05,Rainwise IP-100,2013-12-15 15:31:00,
2013-12-15 10:36:00,49.1,47.0,29.26,West,270,2.0,8.0,95,0.00,,,0.05,Rainwise IP-100,2013-12-15 15:36:00,
2013-12-15 10:41:00,49.2,47.0,29.26,West,270,4.0,11.0,93,0.00,,,0.05,Rainwise IP-100,2013-12-15 15:41:00,
2013-12-15 10:46:00,49.4,47.0,29.26,NNW,337,4.0,9.0,93,0.00,,,0.05,Rainwise IP-100,2013-12-15 15:46:00,
2013-12-15 10:51:00,49.4,47.0,29.26,WNW,292,6.0,12.0,90,0.00,,,0.05,Rainwise IP-100,2013-12-15 15:51:00,
2013-12-15 10:56:00,49.5,47.0,29.26,WNW,292,4.0,10.0,88,0.00,,,0.05,Rainwise IP-100,2013-12-15 15:56:00,
2013-12-15 11:01:00,49.5,47.0,29.26,West,270,4.0,11.0,89,0.00,,,0.05,Rainwise IP-100,2013-12-15 16:01:00,
2013-12-15 11:06:00,49.5,46.0,29.26,WNW,292,4.0,9.0,87,0.00,,,0.05,Rainwise IP-100,2013-12-15 16:06:00,
2013-12-15 11:11:00,49.7,46.0,29.26,WNW,292,6.0,6.0,86,0.00,,,0.05,Rainwise IP-100,2013-12-15 16:11:00,
2013-12-15 11:16:00,49.8,46.0,29.26,NW,315,1.0,8.0,87,0.00,,,0.05,Rainwise IP-100,2013-12-15 16:16:00,
2013-12-15 11:21:00,50.4,46.0,29.25,NW,315,4.0,10.0,85,0.00,,,0.05,Rainwise IP-100,2013-12-15 16:21:00,
2013-12-15 11:26:00,50.6,46.0,29.26,NW,315,9.0,9.0,83,0.00,,,0.05,Rainwise IP-100,2013-12-15 16:26:00,
2013-12-15 11:31:00,50.6,45.0,29.25,WNW,292,4.0,9.0,81,0.00,,,0.05,Rainwise IP-100,2013-12-15 16:31:00,
2013-12-15 11:36:00,50.9,46.0,29.25,West,270,6.0,8.0,81,0.00,,,0.05,Rainwise IP-100,2013-12-15 16:36:00,
2013-12-15 11:41:00,50.8,45.0,29.25,West,270,5.0,9.0,80,0.00,,,0.05,Rainwise IP-100,2013-12-15 16:41:00,
2013-12-15 11:46:00,51.1,45.0,29.25,West,270,5.0,10.0,78,0.00,,,0.05,Rainwise IP-100,2013-12-15 16:46:00,
2013-12-15 11:51:00,51.4,45.0,29.25,NW,315,7.0,11.0,78,0.00,,,0.05,Rainwise IP-100,2013-12-15 16:51:00,
2013-12-15 11:56:00,51.6,45.0,29.25,WNW,292,7.0,9.0,78,0.00,,,0.05,Rainwise IP-100,2013-12-15 16:56:00,
2013-12-15 12:01:00,51.7,45.0,29.25,WNW,292,4.0,9.0,77,0.00,,,0.05,Rainwise IP-100,2013-12-15 17:01:00,
2013-12-15 12:06:00,51.4,44.0,29.25,WNW,292,4.0,12.0,76,0.00,,,0.05,Rainwise IP-100,2013-12-15 17:06:00,
2013-12-15 12:11:00,51.7,44.0,29.25,WNW,292,6.0,9.0,75,0.00,,,0.05,Rainwise IP-100,2013-12-15 17:11:00,
2013-12-15 12:16:00,52.2,45.0,29.25,WSW,247,5.0,9.0,76,0.00,,,0.05,Rainwise IP-100,2013-12-15 17:16:00,
2013-12-15 12:21:00,52.5,45.0,29.25,WNW,292,7.0,12.0,75,0.00,,,0.05,Rainwise IP-100,2013-12-15 17:21:00,
2013-12-15 12:26:00,52.3,44.0,29.25,WNW,292,5.0,14.0,74,0.00,,,0.05,Rainwise IP-100,2013-12-15 17:26:00,
2013-12-15 12:31:00,51.9,43.0,29.25,WNW,292,9.0,12.0,73,0.00,,,0.05,Rainwise IP-100,2013-12-15 17:31:00,
2013-12-15 12:36:00,52.2,44.0,29.25,WSW,247,6.0,11.0,74,0.00,,,0.05,Rainwise IP-100,2013-12-15 17:36:00,
2013-12-15 12:41:00,52.3,44.0,29.25,NW,315,6.0,12.0,75,0.00,,,0.05,Rainwise IP-100,2013-12-15 17:41:00,
2013-12-15 12:46:00,52.3,45.0,29.25,NW,315,11.0,13.0,76,0.00,,,0.05,Rainwise IP-100,2013-12-15 17:46:00,
2013-12-15 12:51:00,52.6,45.0,29.25,WNW,292,2.0,11.0,74,0.00,,,0.05,Rainwise IP-100,2013-12-15 17:51:00,
2013-12-15 12:56:00,53.3,44.0,29.24,NW,315,7.0,11.0,73,0.00,,,0.05,Rainwise IP-100,2013-12-15 17:56:00,
2013-12-15 13:01:00,53.3,45.0,29.25,WNW,292,2.0,12.0,74,0.00,,,0.05,Rainwise IP-100,2013-12-15 18:01:00,
2013-12-15 13:06:00,53.1,44.0,29.25,WNW,292,9.0,16.0,73,0.00,,,0.05,Rainwise IP-100,2013-12-15 18:06:00,
2013-12-15 13:11:00,52.9,45.0,29.25,WNW,292,2.0,11.0,74,0.00,,,0.05,Rainwise IP-100,2013-12-15 18:11:00,
2013-12-15 13:16:00,53.3,44.0,29.25,WNW,292,6.0,10.0,72,0.00,,,0.05,Rainwise IP-100,2013-12-15 18:16:00,
2013-12-15 13:21:00,53.7,44.0,29.25,NW,315,10.0,13.0,71,0.00,,,0.05,Rainwise IP-100,2013-12-15 18:21:00,
2013-12-15 13:26:00,53.3,44.0,29.25,West,270,4.0,12.0,72,0.00,,,0.05,Rainwise IP-100,2013-12-15 18:26:00,
2013-12-15 13:31:00,53.6,44.0,29.25,NW,315,9.0,10.0,71,0.00,,,0.05,Rainwise IP-100,2013-12-15 18:31:00,
2013-12-15 13:36:00,53.8,43.0,29.25,WNW,292,9.0,13.0,68,0.00,,,0.05,Rainwise IP-100,2013-12-15 18:36:00,
2013-12-15 13:41:00,53.9,44.0,29.24,NW,315,5.0,10.0,68,0.00,,,0.05,Rainwise IP-100,2013-12-15 18:41:00,
2013-12-15 13:46:00,54.1,43.0,29.25,NW,315,5.0,11.0,66,0.00,,,0.05,Rainwise IP-100,2013-12-15 18:46:00,
2013-12-15 13:51:00,54.1,42.0,29.24,NW,315,9.0,12.0,64,0.00,,,0.05,Rainwise IP-100,2013-12-15 18:51:00,
2013-12-15 13:56:00,53.5,42.0,29.25,NW,315,8.0,11.0,65,0.00,,,0.05,Rainwise IP-100,2013-12-15 18:56:00,
2013-12-15 14:01:00,53.6,42.0,29.25,WNW,292,9.0,9.0,67,0.00,,,0.05,Rainwise IP-100,2013-12-15 19:01:00,
2013-12-15 14:06:00,53.9,42.0,29.25,West,270,2.0,11.0,65,0.00,,,0.05,Rainwise IP-100,2013-12-15 19:06:00,
2013-12-15 14:11:00,53.9,42.0,29.25,WNW,292,6.0,11.0,65,0.00,,,0.05,Rainwise IP-100,2013-12-15 19:11:00,
2013-12-15 14:16:00,53.9,42.0,29.25,WNW,292,3.0,11.0,65,0.00,,,0.05,Rainwise IP-100,2013-12-15 19:16:00,
2013-12-15 14:21:00,53.9,42.0,29.25,WSW,247,7.0,9.0,65,0.00,,,0.05,Rainwise IP-100,2013-12-15 19:21:00,
2013-12-15 14:26:00,53.8,42.0,29.25,WNW,292,8.0,9.0,65,0.00,,,0.05,Rainwise IP-100,2013-12-15 19:26:00,
2013-12-15 14:31:00,54.3,42.0,29.25,West,270,7.0,11.0,64,0.00,,,0.05,Rainwise IP-100,2013-12-15 19:31:00,
2013-12-15 14:36:00,54.4,43.0,29.25,WNW,292,11.0,13.0,64,0.00,,,0.05,Rainwise IP-100,2013-12-15 19:36:00,
2013-12-15 14:41:00,54.3,42.0,29.26,NW,315,2.0,14.0,64,0.00,,,0.05,Rainwise IP-100,2013-12-15 19:41:00,
2013-12-15 14:46:00,54.5,42.0,29.26,NW,315,6.0,13.0,63,0.00,,,0.05,Rainwise IP-100,2013-12-15 19:46:00,
2013-12-15 14:51:00,54.6,42.0,29.26,West,270,6.0,10.0,62,0.00,,,0.05,Rainwise IP-100,2013-12-15 19:51:00,
2013-12-15 14:56:00,54.4,41.0,29.26,NNW,337,6.0,12.0,60,0.00,,,0.05,Rainwise IP-100,2013-12-15 19:56:00,
2013-12-15 15:01:00,54.7,41.0,29.27,West,270,6.0,9.0,61,0.00,,,0.05,Rainwise IP-100,2013-12-15 20:01:00,
2013-12-15 15:06:00,55.1,41.0,29.27,NW,315,2.0,7.0,59,0.00,,,0.05,Rainwise IP-100,2013-12-15 20:06:00,
2013-12-15 15:11:00,55.1,41.0,29.27,WSW,247,4.0,10.0,60,0.00,,,0.05,Rainwise IP-100,2013-12-15 20:11:00,
2013-12-15 15:16:00,54.7,41.0,29.27,NW,315,4.0,12.0,60,0.00,,,0.05,Rainwise IP-100,2013-12-15 20:16:00,
2013-12-15 15:21:00,54.9,40.0,29.27,NW,315,8.0,10.0,57,0.00,,,0.05,Rainwise IP-100,2013-12-15 20:21:00,
2013-12-15 15:26:00,54.9,40.0,29.27,WNW,292,3.0,11.0,57,0.00,,,0.05,Rainwise IP-100,2013-12-15 20:26:00,
2013-12-15 15:31:00,54.8,40.0,29.28,WNW,292,8.0,12.0,57,0.00,,,0.05,Rainwise IP-100,2013-12-15 20:31:00,
2013-12-15 15:36:00,54.7,40.0,29.28,WNW,292,3.0,12.0,57,0.00,,,0.05,Rainwise IP-100,2013-12-15 20:36:00,
2013-12-15 15:41:00,54.7,40.0,29.28,WNW,292,4.0,10.0,59,0.00,,,0.05,Rainwise IP-100,2013-12-15 20:41:00,
2013-12-15 15:46:00,54.6,40.0,29.29,West,270,8.0,10.0,59,0.00,,,0.05,Rainwise IP-100,2013-12-15 20:46:00,
2013-12-15 15:51:00,54.5,40.0,29.29,West,270,5.0,11.0,59,0.00,,,0.05,Rainwise IP-100,2013-12-15 20:51:00,
2013-12-15 15:56:00,54.6,40.0,29.29,West,270,7.0,8.0,58,0.00,,,0.05,Rainwise IP-100,2013-12-15 20:56:00,
2013-12-15 16:01:00,54.5,41.0,29.29,West,270,4.0,12.0,60,0.00,,,0.05,Rainwise IP-100,2013-12-15 21:01:00,
2013-12-15 16:06:00,54.4,40.0,29.29,West,270,6.0,11.0,59,0.00,,,0.05,Rainwise IP-100,2013-12-15 21:06:00,
2013-12-15 16:11:00,54.3,40.0,29.29,WNW,292,6.0,12.0,59,0.00,,,0.05,Rainwise IP-100,2013-12-15 21:11:00,
2013-12-15 16:16:00,54.1,40.0,29.29,WSW,247,4.0,8.0,59,0.00,,,0.05,Rainwise IP-100,2013-12-15 21:16:00,
2013-12-15 16:21:00,54.2,40.0,29.29,WNW,292,6.0,7.0,59,0.00,,,0.05,Rainwise IP-100,2013-12-15 21:21:00,
2013-12-15 16:26:00,54.1,40.0,29.30,WNW,292,7.0,9.0,59,0.00,,,0.05,Rainwise IP-100,2013-12-15 21:26:00,
2013-12-15 16:31:00,53.9,40.0,29.30,West,270,5.0,7.0,60,0.00,,,0.05,Rainwise IP-100,2013-12-15 21:31:00,
2013-12-15 16:36:00,53.7,40.0,29.31,West,270,1.0,9.0,61,0.00,,,0.05,Rainwise IP-100,2013-12-15 21:36:00,
2013-12-15 16:41:00,53.5,40.0,29.31,SW,225,2.0,8.0,61,0.00,,,0.05,Rainwise IP-100,2013-12-15 21:41:00,
2013-12-15 16:46:00,53.3,40.0,29.31,West,270,3.0,8.0,62,0.00,,,0.05,Rainwise IP-100,2013-12-15 21:46:00,
2013-12-15 16:51:00,53.1,40.0,29.31,WNW,292,6.0,6.0,62,0.00,,,0.05,Rainwise IP-100,2013-12-15 21:51:00,
2013-12-15 16:56:00,52.8,40.0,29.31,West,270,2.0,6.0,63,0.00,,,0.05,Rainwise IP-100,2013-12-15 21:56:00,
2013-12-15 17:01:00,52.5,41.0,29.30,WNW,292,2.0,5.0,64,0.00,,,0.05,Rainwise IP-100,2013-12-15 22:01:00,
2013-12-15 17:06:00,52.2,40.0,29.31,WNW,292,3.0,6.0,65,0.00,,,0.05,Rainwise IP-100,2013-12-15 22:06:00,
2013-12-15 17:11:00,51.8,41.0,29.31,WNW,292,1.0,5.0,66,0.00,,,0.05,Rainwise IP-100,2013-12-15 22:11:00,
2013-12-15 17:16:00,51.5,41.0,29.31,West,270,1.0,5.0,67,0.00,,,0.05,Rainwise IP-100,2013-12-15 22:16:00,
2013-12-15 17:21:00,51.2,40.0,29.31,NW,315,1.0,5.0,67,0.00,,,0.05,Rainwise IP-100,2013-12-15 22:21:00,
2013-12-15 17:26:00,50.9,40.0,29.31,WNW,292,4.0,6.0,67,0.00,,,0.05,Rainwise IP-100,2013-12-15 22:26:00,
2013-12-15 17:31:00,50.7,40.0,29.31,WNW,292,2.0,7.0,67,0.00,,,0.05,Rainwise IP-100,2013-12-15 22:31:00,
2013-12-15 17:36:00,50.5,40.0,29.31,NNW,337,2.0,7.0,68,0.00,,,0.05,Rainwise IP-100,2013-12-15 22:36:00,
2013-12-15 17:41:00,50.2,40.0,29.32,NNW,337,2.0,4.0,70,0.00,,,0.05,Rainwise IP-100,2013-12-15 22:41:00,
2013-12-15 17:46:00,49.9,40.0,29.32,NW,315,1.0,2.0,70,0.00,,,0.05,Rainwise IP-100,2013-12-15 22:46:00,
2013-12-15 17:51:00,49.7,39.0,29.33,WNW,292,1.0,4.0,68,0.00,,,0.05,Rainwise IP-100,2013-12-15 22:51:00,
2013-12-15 17:56:00,49.5,39.0,29.33,WNW,292,4.0,4.0,68,0.00,,,0.05,Rainwise IP-100,2013-12-15 22:56:00,
2013-12-15 18:01:00,49.5,39.0,29.33,WNW,292,2.0,6.0,68,0.00,,,0.05,Rainwise IP-100,2013-12-15 23:01:00,
2013-12-15 18:06:00,49.4,39.0,29.34,WNW,292,2.0,4.0,68,0.00,,,0.05,Rainwise IP-100,2013-12-15 23:06:00,
2013-12-15 18:11:00,49.2,39.0,29.34,WNW,292,2.0,5.0,68,0.00,,,0.05,Rainwise IP-100,2013-12-15 23:11:00,
2013-12-15 18:16:00,48.9,39.0,29.34,WNW,292,3.0,5.0,68,0.00,,,0.05,Rainwise IP-100,2013-12-15 23:16:00,
2013-12-15 18:21:00,48.5,39.0,29.35,WNW,292,4.0,6.0,69,0.00,,,0.05,Rainwise IP-100,2013-12-15 23:21:00,
2013-12-15 18:26:00,48.2,38.0,29.35,WNW,292,3.0,5.0,69,0.00,,,0.05,Rainwise IP-100,2013-12-15 23:26:00,
2013-12-15 18:31:00,47.8,38.0,29.35,NW,315,2.0,6.0,69,0.00,,,0.05,Rainwise IP-100,2013-12-15 23:31:00,
2013-12-15 18:36:00,47.5,38.0,29.35,NW,315,1.0,5.0,70,0.00,,,0.05,Rainwise IP-100,2013-12-15 23:36:00,
2013-12-15 18:41:00,47.3,37.0,29.35,NW,315,4.0,7.0,70,0.00,,,0.05,Rainwise IP-100,2013-12-15 23:41:00,
2013-12-15 18:46:00,47.2,38.0,29.36,NW,315,4.0,7.0,71,0.00,,,0.05,Rainwise IP-100,2013-12-15 23:46:00,
2013-12-15 18:51:00,46.9,38.0,29.36,WNW,292,1.0,4.0,71,0.00,,,0.05,Rainwise IP-100,2013-12-15 23:51:00,
2013-12-15 18:56:00,46.5,38.0,29.36,NW,315,1.0,4.0,72,0.00,,,0.05,Rainwise IP-100,2013-12-15 23:56:00,
2013-12-15 19:01:00,46.2,38.0,29.36,NW,315,2.0,4.0,73,0.00,,,0.05,Rainwise IP-100,2013-12-16 00:01:00,
2013-12-15 19:06:00,45.9,38.0,29.36,NW,315,1.0,3.0,74,0.00,,,0.05,Rainwise IP-100,2013-12-16 00:06:00,
2013-12-15 19:11:00,45.5,38.0,29.37,NW,315,2.0,2.0,75,0.00,,,0.05,Rainwise IP-100,2013-12-16 00:11:00,
2013-12-15 19:16:00,45.1,38.0,29.36,NW,315,0.0,2.0,76,0.00,,,0.05,Rainwise IP-100,2013-12-16 00:16:00,
2013-12-15 19:21:00,44.8,38.0,29.36,WNW,292,1.0,2.0,75,0.00,,,0.05,Rainwise IP-100,2013-12-16 00:21:00,
2013-12-15 19:26:00,44.7,38.0,29.37,NW,315,2.0,4.0,75,0.00,,,0.05,Rainwise IP-100,2013-12-16 00:26:00,
2013-12-15 19:31:00,44.5,38.0,29.37,NW,315,0.0,2.0,76,0.00,,,0.05,Rainwise IP-100,2013-12-16 00:31:00,
2013-12-15 19:36:00,44.1,37.0,29.37,NW,315,0.0,2.0,77,0.00,,,0.05,Rainwise IP-100,2013-12-16 00:36:00,
2013-12-15 19:41:00,43.4,37.0,29.37,WNW,292,1.0,2.0,79,0.00,,,0.05,Rainwise IP-100,2013-12-16 00:41:00,
2013-12-15 19:46:00,42.8,38.0,29.37,WNW,292,1.0,2.0,82,0.00,,,0.05,Rainwise IP-100,2013-12-16 00:46:00,
2013-12-15 19:51:00,42.8,37.0,29.37,WNW,292,1.0,3.0,78,0.00,,,0.05,Rainwise IP-100,2013-12-16 00:51:00,
2013-12-15 19:56:00,42.9,37.0,29.37,NW,315,1.0,3.0,78,0.00,,,0.05,Rainwise IP-100,2013-12-16 00:56:00,
2013-12-15 20:01:00,42.9,37.0,29.37,NW,315,2.0,3.0,78,0.00,,,0.05,Rainwise IP-100,2013-12-16 01:01:00,
2013-12-15 20:06:00,42.6,37.0,29.37,North,360,0.0,2.0,78,0.00,,,0.05,Rainwise IP-100,2013-12-16 01:06:00,
2013-12-15 20:11:00,42.1,36.0,29.37,North,360,2.0,2.0,79,0.00,,,0.05,Rainwise IP-100,2013-12-16 01:11:00,
2013-12-15 20:16:00,41.5,36.0,29.37,North,360,0.0,2.0,79,0.00,,,0.05,Rainwise IP-100,2013-12-16 01:16:00,
2013-12-15 20:21:00,41.1,36.0,29.37,North,360,0.0,2.0,79,0.00,,,0.05,Rainwise IP-100,2013-12-16 01:21:00,
2013-12-15 20:26:00,40.8,36.0,29.37,North,360,2.0,2.0,80,0.00,,,0.05,Rainwise IP-100,2013-12-16 01:26:00,
2013-12-15 20:31:00,40.7,37.0,29.38,NW,315,2.0,2.0,85,0.00,,,0.05,Rainwise IP-100,2013-12-16 01:31:00,
2013-12-15 20:36:00,40.8,36.0,29.38,NW,315,2.0,3.0,79,0.00,,,0.05,Rainwise IP-100,2013-12-16 01:36:00,
2013-12-15 20:41:00,40.9,35.0,29.38,NNW,337,3.0,3.0,77,0.00,,,0.05,Rainwise IP-100,2013-12-16 01:41:00,
2013-12-15 20:46:00,41.2,35.0,29.38,NW,315,2.0,4.0,77,0.00,,,0.05,Rainwise IP-100,2013-12-16 01:46:00,
2013-12-15 20:51:00,41.4,35.0,29.38,NNW,337,2.0,3.0,75,0.00,,,0.05,Rainwise IP-100,2013-12-16 01:51:00,
2013-12-15 20:56:00,41.4,35.0,29.38,NW,315,4.0,4.0,75,0.00,,,0.05,Rainwise IP-100,2013-12-16 01:56:00,
2013-12-15 21:01:00,41.2,35.0,29.39,NW,315,4.0,4.0,77,0.00,,,0.05,Rainwise IP-100,2013-12-16 02:01:00,
2013-12-15 21:06:00,40.8,35.0,29.39,NW,315,1.0,4.0,78,0.00,,,0.05,Rainwise IP-100,2013-12-16 02:06:00,
2013-12-15 21:11:00,40.4,35.0,29.39,NW,315,1.0,2.0,78,0.00,,,0.05,Rainwise IP-100,2013-12-16 02:11:00,
2013-12-15 21:16:00,39.9,35.0,29.39,NW,315,1.0,2.0,81,0.00,,,0.05,Rainwise IP-100,2013-12-16 02:16:00,
2013-12-15 21:21:00,39.4,35.0,29.39,NW,315,1.0,2.0,83,0.00,,,0.05,Rainwise IP-100,2013-12-16 02:21:00,
2013-12-15 21:26:00,39.0,35.0,29.39,NW,315,1.0,2.0,83,0.00,,,0.05,Rainwise IP-100,2013-12-16 02:26:00,
2013-12-15 21:31:00,39.4,33.0,29.39,NNW,337,2.0,4.0,79,0.00,,,0.05,Rainwise IP-100,2013-12-16 02:31:00,
2013-12-15 21:36:00,39.8,33.0,29.39,North,360,2.0,6.0,77,0.00,,,0.05,Rainwise IP-100,2013-12-16 02:36:00,
2013-12-15 21:41:00,39.9,33.0,29.39,NW,315,4.0,6.0,75,0.00,,,0.05,Rainwise IP-100,2013-12-16 02:41:00,
2013-12-15 21:46:00,40.1,33.0,29.39,NW,315,1.0,6.0,75,0.00,,,0.05,Rainwise IP-100,2013-12-16 02:46:00,
2013-12-15 21:51:00,40.2,33.0,29.40,NW,315,1.0,5.0,74,0.00,,,0.05,Rainwise IP-100,2013-12-16 02:51:00,
2013-12-15 21:56:00,40.1,32.0,29.40,NW,315,2.0,5.0,73,0.00,,,0.05,Rainwise IP-100,2013-12-16 02:56:00,
2013-12-15 22:01:00,39.9,33.0,29.40,NW,315,2.0,5.0,74,0.00,,,0.05,Rainwise IP-100,2013-12-16 03:01:00,
2013-12-15 22:06:00,39.5,33.0,29.40,NNW,337,2.0,4.0,75,0.00,,,0.05,Rainwise IP-100,2013-12-16 03:06:00,
2013-12-15 22:11:00,39.2,32.0,29.41,NW,315,2.0,4.0,76,0.00,,,0.05,Rainwise IP-100,2013-12-16 03:11:00,
2013-12-15 22:16:00,39.2,32.0,29.41,NW,315,2.0,4.0,76,0.00,,,0.05,Rainwise IP-100,2013-12-16 03:16:00,
2013-12-15 22:21:00,39.1,32.0,29.41,NW,315,2.0,2.0,76,0.00,,,0.05,Rainwise IP-100,2013-12-16 03:21:00,
2013-12-15 22:26:00,38.9,32.0,29.41,NW,315,1.0,2.0,77,0.00,,,0.05,Rainwise IP-100,2013-12-16 03:26:00,
2013-12-15 22:31:00,38.5,33.0,29.41,NW,315,1.0,2.0,78,0.00,,,0.05,Rainwise IP-100,2013-12-16 03:31:00,
2013-12-15 22:36:00,38.1,32.0,29.41,WNW,292,2.0,2.0,80,0.00,,,0.05,Rainwise IP-100,2013-12-16 03:36:00,
2013-12-15 22:41:00,37.6,33.0,29.42,WNW,292,1.0,2.0,81,0.00,,,0.05,Rainwise IP-100,2013-12-16 03:41:00,
2013-12-15 22:46:00,36.9,32.0,29.42,WNW,292,2.0,2.0,83,0.00,,,0.05,Rainwise IP-100,2013-12-16 03:46:00,
2013-12-15 22:51:00,36.8,32.0,29.42,WNW,292,0.0,2.0,84,0.00,,,0.05,Rainwise IP-100,2013-12-16 03:51:00,
2013-12-15 22:56:00,36.4,32.0,29.42,WNW,292,0.0,0.0,85,0.00,,,0.05,Rainwise IP-100,2013-12-16 03:56:00,
2013-12-15 23:01:00,35.9,32.0,29.42,WNW,292,0.0,0.0,85,0.00,,,0.05,Rainwise IP-100,2013-12-16 04:01:00,
2013-12-15 23:06:00,35.9,32.0,29.42,WNW,292,0.0,0.0,85,0.00,,,0.05,Rainwise IP-100,2013-12-16 04:06:00,
2013-12-15 23:11:00,35.6,32.0,29.42,WNW,292,1.0,1.0,86,0.00,,,0.05,Rainwise IP-100,2013-12-16 04:11:00,
2013-12-15 23:16:00,35.3,32.0,29.42,WNW,292,0.0,2.0,88,0.00,,,0.05,Rainwise IP-100,2013-12-16 04:16:00,
2013-12-15 23:21:00,34.6,32.0,29.42,WNW,292,0.0,2.0,91,0.00,,,0.05,Rainwise IP-100,2013-12-16 04:21:00,
2013-12-15 23:26:00,34.2,33.0,29.43,WNW,292,0.0,2.0,93,0.00,,,0.05,Rainwise IP-100,2013-12-16 04:26:00,
2013-12-15 23:31:00,33.9,33.0,29.43,WNW,292,0.0,0.0,93,0.00,,,0.05,Rainwise IP-100,2013-12-16 04:31:00,
2013-12-15 23:36:00,33.7,33.0,29.42,WNW,292,0.0,1.0,93,0.00,,,0.05,Rainwise IP-100,2013-12-16 04:36:00,
2013-12-15 23:41:00,33.4,32.0,29.42,WNW,292,0.0,1.0,95,0.00,,,0.05,Rainwise IP-100,2013-12-16 04:41:00,
2013-12-15 23:46:00,33.2,32.0,29.42,WNW,292,0.0,0.0,95,0.00,,,0.05,Rainwise IP-100,2013-12-16 04:46:00,
2013-12-15 23:51:00,32.7,32.0,29.42,WNW,292,0.0,0.0,95,0.00,,,0.05,Rainwise IP-100,2013-12-16 04:51:00,
2013-12-15 23:56:00,32.4,31.0,29.41,WNW,292,0.0,0.0,95,0.00,,,0.05,Rainwise IP-100,2013-12-16 04:56:00,